This is the latest recevied weather packets stored in our database for station/object AD0YN. If no packets are shown the sender has not sent any weather packets the latest 10 day(s).
| Time | Temp. | Humidity | Pressure | Rain* | Wind** | Luminosity | Snow |
|---|---|---|---|---|---|---|---|
| 1788532749 | 30° C | 61% | 1014.6 hPa | 0 mm | - | 401 W/m² | - |
| 1788532445 | 30° C | 62% | 1014.6 hPa | 0 mm | - | 385 W/m² | - |
| 1788532142 | 29.44° C | 63% | 1014.7 hPa | 0 mm | - | 369 W/m² | - |
| 1788531837 | 29.44° C | 63% | 1014.4 hPa | 0 mm | - | 355 W/m² | - |
| 1788531537 | 28.89° C | 64% | 1014.5 hPa | 0 mm | - | 338 W/m² | - |
| 1788531232 | 28.89° C | 66% | 1014.7 hPa | 0 mm | - | 324 W/m² | - |
| 1788530929 | 28.33° C | 67% | 1014.5 hPa | 0 mm | - | 308 W/m² | - |
| 1788530644 | 27.78° C | 67% | 1014.6 hPa | 0 mm | - | 292 W/m² | - |
| 1788530322 | 27.78° C | 67% | 1014.6 hPa | 0 mm | - | 86 W/m² | - |
| 1788530017 | 27.78° C | 67% | 1014.5 hPa | 0 mm | - | 261 W/m² | - |
| 1788529713 | 27.78° C | 68% | 1014.5 hPa | 0 mm | - | 217 W/m² | - |
| 1788529408 | 27.22° C | 69% | 1014.5 hPa | 0 mm | - | 232 W/m² | - |
| 1788529108 | 27.22° C | 69% | 1014.7 hPa | 0 mm | - | 216 W/m² | - |
| 1788528804 | 26.67° C | 70% | 1014.7 hPa | 0 mm | - | 61 W/m² | - |
| 1788528503 | 26.67° C | 71% | 1014.6 hPa | 0 mm | - | 186 W/m² | - |
| 1788528198 | 26.67° C | 71% | 1014.5 hPa | 0 mm | - | 59 W/m² | - |
| 1788527898 | 26.11° C | 72% | 1014.7 hPa | 0 mm | - | 134 W/m² | - |
| 1788527594 | 26.11° C | 72% | 1014.6 hPa | 0 mm | - | 148 W/m² | - |
| 1788527294 | 25.56° C | 72% | 1014.7 hPa | 0 mm | - | 134 W/m² | - |
| 1788526993 | 25.56° C | 73% | 1014.7 hPa | 0 mm | - | 123 W/m² | - |
| 1788526689 | 25.56° C | 74% | 1014.7 hPa | 0 mm | - | 112 W/m² | - |
| 1788526385 | 25° C | 75% | 1015 hPa | 0 mm | - | 102 W/m² | - |
| 1788526084 | 25° C | 76% | 1014.6 hPa | 0 mm | - | 92 W/m² | - |
| 1788525781 | 24.44° C | 76% | 1014.6 hPa | 0 mm | - | 82 W/m² | - |
| 1788525475 | 24.44° C | 77% | 1014.3 hPa | 0 mm | - | 71 W/m² | - |
* Rain latest hour (hover to see other rain measurements)
** Current wind speed in m/s (hover to see current wind gust speed)